{"data":{"norad_id":62958,"intl_designator":"2025-029L","name":"STARLINK-32885","alt_names":[],"object_type":"PAYLOAD","status":"ACTIVE","operator":null,"country":"US","launch_date":"2025-02-11","launch_site_code":"AFWTR","launch_vehicle":null,"mission":null,"orbit_class":"UNKNOWN","rcs_meters":null,"size_class":null,"mass_kg":null,"dimensions":null,"purposes":["comms"],"wikipedia_slug":null,"has_3d_model":false,"image_url":null,"decayed_at":null,"tle_current":{"epoch":"2026-09-21T13:45:33.515712Z","epoch_age_seconds":72870,"freshness":"FRESH","line1":"1 62958U 25029L   26264.57330458  .00014059  00000+0  42667-3 0  9999","line2":"2 62958  53.1596  36.5395 0001171 110.4798 249.6331 15.34383840 91391","mean_motion":15.3438384,"eccentricity":0.0001171,"inclination_deg":53.1596,"raan_deg":36.5395,"arg_perigee_deg":110.4798,"mean_anomaly_deg":249.6331,"bstar":0.00042667,"rev_number":9139,"period_min":93.848746477935,"perigee_km":461.95020353762,"apogee_km":463.55233957082,"semimajor_km":6840.8882715542,"source":"CELESTRAK","updated_at":"2026-09-22T09:00:49.713031Z"}}}